Time,TemperatureF,DewpointF,PressureIn,WindDirection,WindDirectionDegrees,WindSpeedMPH,WindSpeedGustMPH,Humidity,HourlyPrecipIn,Conditions,Clouds,dailyrainin,SolarRadiationWatts/m^2,SoftwareType,DateUTC
2013-06-06 00:02:00,47.0,38.0,-100.00,ESE,120,4.0,7.0,70,0.00,,,-99.99,0.000000,,2013-06-06 05:02:00,
2013-06-06 00:12:00,47.0,38.0,-100.00,ESE,120,4.0,7.0,70,0.00,,,-99.99,0.000000,,2013-06-06 05:12:00,
2013-06-06 00:32:00,47.0,37.0,-100.00,East,93,4.0,8.0,69,0.00,,,0.04,0.000000,,2013-06-06 05:32:00,
2013-06-06 00:42:00,47.0,37.0,-100.00,East,93,4.0,8.0,69,0.00,,,0.04,0.000000,,2013-06-06 05:42:00,
2013-06-06 00:52:00,47.0,37.0,-100.00,East,93,4.0,8.0,69,0.00,,,0.04,0.000000,,2013-06-06 05:52:00,
2013-06-06 01:02:00,47.0,37.0,-100.00,East,93,4.0,8.0,69,0.00,,,0.04,0.000000,,2013-06-06 06:02:00,
2013-06-06 01:12:00,47.0,37.0,-100.00,East,93,4.0,8.0,69,0.00,,,0.04,0.000000,,2013-06-06 06:12:00,
2013-06-06 01:33:00,45.0,39.0,-100.00,ESE,102,4.0,11.0,78,0.00,,,0.04,0.000000,,2013-06-06 06:33:00,
2013-06-06 01:42:00,45.0,39.0,-100.00,ESE,102,4.0,11.0,78,0.00,,,0.04,0.000000,,2013-06-06 06:42:00,
2013-06-06 01:52:00,45.0,39.0,-100.00,ESE,102,4.0,11.0,78,0.00,,,0.04,0.000000,,2013-06-06 06:52:00,
2013-06-06 02:02:00,45.0,39.0,-100.00,ESE,102,4.0,11.0,78,0.00,,,0.04,0.000000,,2013-06-06 07:02:00,
2013-06-06 02:12:00,45.0,39.0,-100.00,ESE,102,4.0,11.0,78,0.00,,,0.04,0.000000,,2013-06-06 07:12:00,
2013-06-06 02:32:00,44.0,39.0,-100.00,East,81,4.0,7.0,81,0.00,,,0.04,1.000000,,2013-06-06 07:32:00,
2013-06-06 02:42:00,44.0,39.0,-100.00,East,81,4.0,7.0,81,0.00,,,0.04,1.000000,,2013-06-06 07:42:00,
2013-06-06 02:52:00,44.0,39.0,-100.00,East,81,4.0,7.0,81,0.00,,,0.04,1.000000,,2013-06-06 07:52:00,
2013-06-06 03:02:00,44.0,39.0,-100.00,East,81,4.0,7.0,81,0.00,,,0.04,1.000000,,2013-06-06 08:02:00,
2013-06-06 03:12:00,44.0,39.0,-100.00,East,81,4.0,7.0,81,0.00,,,0.04,1.000000,,2013-06-06 08:12:00,
2013-06-06 03:32:00,44.0,40.0,-100.00,ENE,74,3.0,7.0,86,0.00,,,0.04,0.000000,,2013-06-06 08:32:00,
2013-06-06 03:42:00,44.0,40.0,-100.00,ENE,74,3.0,7.0,86,0.00,,,0.04,0.000000,,2013-06-06 08:42:00,
2013-06-06 03:52:00,44.0,40.0,-100.00,ENE,74,3.0,7.0,86,0.00,,,0.04,0.000000,,2013-06-06 08:52:00,
2013-06-06 04:02:00,44.0,40.0,-100.00,ENE,74,3.0,7.0,86,0.00,,,0.04,0.000000,,2013-06-06 09:02:00,
2013-06-06 04:12:00,44.0,40.0,-100.00,ENE,74,3.0,7.0,86,0.00,,,0.04,0.000000,,2013-06-06 09:12:00,
2013-06-06 04:33:00,44.0,40.0,-100.00,ENE,78,4.0,6.0,87,0.00,,,0.04,1.000000,,2013-06-06 09:33:00,
2013-06-06 04:43:00,44.0,40.0,-100.00,ENE,78,4.0,6.0,87,0.00,,,0.04,1.000000,,2013-06-06 09:43:00,
2013-06-06 04:53:00,44.0,40.0,-100.00,ENE,78,4.0,6.0,87,0.00,,,0.04,1.000000,,2013-06-06 09:53:00,
2013-06-06 05:03:00,44.0,40.0,-100.00,ENE,78,4.0,6.0,87,0.00,,,0.04,1.000000,,2013-06-06 10:03:00,
2013-06-06 05:12:00,44.0,40.0,-100.00,ENE,78,4.0,6.0,87,0.00,,,0.04,1.000000,,2013-06-06 10:12:00,
2013-06-06 05:33:00,45.0,42.0,-100.00,East,83,3.0,7.0,88,0.00,,,0.04,1.000000,,2013-06-06 10:33:00,
2013-06-06 05:42:00,45.0,42.0,-100.00,East,83,3.0,7.0,88,0.00,,,0.04,1.000000,,2013-06-06 10:42:00,
2013-06-06 05:53:00,45.0,42.0,-100.00,East,83,3.0,7.0,88,0.00,,,0.04,1.000000,,2013-06-06 10:53:00,
2013-06-06 06:02:00,45.0,42.0,-100.00,East,83,3.0,7.0,88,0.00,,,0.04,1.000000,,2013-06-06 11:02:00,
2013-06-06 06:12:00,45.0,42.0,-100.00,East,83,3.0,7.0,88,0.00,,,0.04,1.000000,,2013-06-06 11:12:00,
2013-06-06 06:32:00,45.0,42.0,-100.00,ENE,73,3.0,6.0,89,0.00,,,0.04,10.000000,,2013-06-06 11:32:00,
2013-06-06 06:42:00,45.0,42.0,-100.00,ENE,73,3.0,6.0,89,0.00,,,0.04,10.000000,,2013-06-06 11:42:00,
2013-06-06 06:52:00,45.0,42.0,-100.00,ENE,73,3.0,6.0,89,0.00,,,0.04,10.000000,,2013-06-06 11:52:00,
2013-06-06 07:02:00,45.0,42.0,-100.00,ENE,73,3.0,6.0,89,0.00,,,0.04,10.000000,,2013-06-06 12:02:00,
2013-06-06 07:12:00,45.0,42.0,-100.00,ENE,73,3.0,6.0,89,0.00,,,0.04,10.000000,,2013-06-06 12:12:00,
2013-06-06 07:13:00,47.0,43.0,-100.00,East,85,4.0,7.0,87,0.00,,,0.04,36.000000,,2013-06-06 12:13:00,
2013-06-06 07:33:00,47.0,43.0,-100.00,East,85,4.0,7.0,87,0.00,,,0.04,36.000000,,2013-06-06 12:33:00,
2013-06-06 07:43:00,47.0,43.0,-100.00,East,85,4.0,7.0,87,0.00,,,0.04,36.000000,,2013-06-06 12:43:00,
2013-06-06 07:53:00,47.0,43.0,-100.00,East,85,4.0,7.0,87,0.00,,,0.04,36.000000,,2013-06-06 12:53:00,
2013-06-06 08:03:00,47.0,43.0,-100.00,East,85,4.0,7.0,87,0.00,,,0.04,36.000000,,2013-06-06 13:03:00,
2013-06-06 08:13:00,48.0,44.0,-100.00,East,91,5.0,11.0,85,0.00,,,0.04,73.000000,,2013-06-06 13:13:00,
2013-06-06 08:33:00,48.0,44.0,-100.00,East,91,5.0,11.0,85,0.00,,,0.04,73.000000,,2013-06-06 13:33:00,
2013-06-06 08:43:00,48.0,44.0,-100.00,East,91,5.0,11.0,85,0.00,,,0.04,73.000000,,2013-06-06 13:43:00,
2013-06-06 08:53:00,48.0,44.0,-100.00,East,91,5.0,11.0,85,0.00,,,0.04,73.000000,,2013-06-06 13:53:00,
2013-06-06 09:03:00,48.0,44.0,-100.00,East,91,5.0,11.0,85,0.00,,,0.04,73.000000,,2013-06-06 14:03:00,
2013-06-06 09:13:00,49.0,45.0,-100.00,East,100,5.0,10.0,86,0.00,,,0.04,83.000000,,2013-06-06 14:13:00,
2013-06-06 09:33:00,49.0,45.0,-100.00,East,100,5.0,10.0,86,0.00,,,0.04,83.000000,,2013-06-06 14:33:00,
2013-06-06 09:43:00,49.0,45.0,-100.00,East,100,5.0,10.0,86,0.00,,,0.04,83.000000,,2013-06-06 14:43:00,
2013-06-06 09:53:00,49.0,45.0,-100.00,East,100,5.0,10.0,86,0.00,,,0.04,83.000000,,2013-06-06 14:53:00,
2013-06-06 10:03:00,49.0,45.0,-100.00,East,100,5.0,10.0,86,0.00,,,0.04,83.000000,,2013-06-06 15:03:00,
2013-06-06 11:13:00,52.0,45.0,-100.00,ESE,104,5.0,12.0,78,-99.99,,,0.04,176.000000,,2013-06-06 16:13:00,
2013-06-06 11:34:00,52.0,45.0,-100.00,ESE,104,5.0,12.0,78,-99.99,,,0.04,176.000000,,2013-06-06 16:34:00,
2013-06-06 11:44:00,52.0,45.0,-100.00,ESE,104,5.0,12.0,78,-99.99,,,0.04,176.000000,,2013-06-06 16:44:00,
2013-06-06 11:53:00,52.0,45.0,-100.00,ESE,104,5.0,12.0,78,-99.99,,,0.04,176.000000,,2013-06-06 16:53:00,
2013-06-06 12:03:00,52.0,45.0,-100.00,ESE,104,5.0,12.0,78,-99.99,,,0.04,176.000000,,2013-06-06 17:03:00,
2013-06-06 12:13:00,54.0,46.0,-100.00,SE,131,4.0,10.0,75,0.00,,,0.03,211.000000,,2013-06-06 17:13:00,
2013-06-06 12:33:00,54.0,46.0,-100.00,SE,131,4.0,10.0,75,0.00,,,0.03,211.000000,,2013-06-06 17:33:00,
2013-06-06 12:43:00,54.0,46.0,-100.00,SE,131,4.0,10.0,75,0.00,,,0.03,211.000000,,2013-06-06 17:43:00,
2013-06-06 12:53:00,54.0,46.0,-100.00,SE,131,4.0,10.0,75,0.00,,,0.03,211.000000,,2013-06-06 17:53:00,
2013-06-06 13:03:00,54.0,46.0,-100.00,SE,131,4.0,10.0,75,0.00,,,0.03,211.000000,,2013-06-06 18:03:00,
2013-06-06 13:13:00,56.0,46.0,-100.00,ESE,114,3.0,9.0,70,0.00,,,0.01,226.000000,,2013-06-06 18:13:00,
2013-06-06 13:33:00,56.0,46.0,-100.00,ESE,114,3.0,9.0,70,0.00,,,0.01,226.000000,,2013-06-06 18:33:00,
2013-06-06 13:43:00,56.0,46.0,-100.00,ESE,114,3.0,9.0,70,0.00,,,0.01,226.000000,,2013-06-06 18:43:00,
2013-06-06 13:53:00,56.0,46.0,-100.00,ESE,114,3.0,9.0,70,0.00,,,0.01,226.000000,,2013-06-06 18:53:00,
2013-06-06 14:03:00,56.0,46.0,-100.00,ESE,114,3.0,9.0,70,0.00,,,0.01,226.000000,,2013-06-06 19:03:00,
2013-06-06 14:13:00,55.0,44.0,-100.00,ESE,102,4.0,9.0,67,0.00,,,0.00,170.000000,,2013-06-06 19:13:00,
2013-06-06 14:34:00,55.0,44.0,-100.00,ESE,102,4.0,9.0,67,0.00,,,0.00,170.000000,,2013-06-06 19:34:00,
2013-06-06 14:43:00,55.0,44.0,-100.00,ESE,102,4.0,9.0,67,0.00,,,0.00,170.000000,,2013-06-06 19:43:00,
2013-06-06 14:53:00,55.0,44.0,-100.00,ESE,102,4.0,9.0,67,0.00,,,0.00,170.000000,,2013-06-06 19:53:00,
2013-06-06 15:03:00,55.0,44.0,-100.00,ESE,102,4.0,9.0,67,0.00,,,0.00,170.000000,,2013-06-06 20:03:00,
2013-06-06 15:13:00,56.0,44.0,-100.00,ESE,107,4.0,7.0,64,0.00,,,0.00,219.000000,,2013-06-06 20:13:00,
2013-06-06 15:33:00,56.0,44.0,-100.00,ESE,107,4.0,7.0,64,0.00,,,0.00,219.000000,,2013-06-06 20:33:00,
2013-06-06 15:43:00,56.0,44.0,-100.00,ESE,107,4.0,7.0,64,0.00,,,0.00,219.000000,,2013-06-06 20:43:00,
2013-06-06 15:53:00,56.0,44.0,-100.00,ESE,107,4.0,7.0,64,0.00,,,0.00,219.000000,,2013-06-06 20:53:00,
2013-06-06 16:03:00,56.0,44.0,-100.00,ESE,107,4.0,7.0,64,0.00,,,0.00,219.000000,,2013-06-06 21:03:00,
2013-06-06 16:13:00,59.0,45.0,-100.00,ESE,118,3.0,9.0,59,0.00,,,0.00,380.000000,,2013-06-06 21:13:00,
2013-06-06 16:33:00,59.0,45.0,-100.00,ESE,118,3.0,9.0,59,0.00,,,0.00,380.000000,,2013-06-06 21:33:00,
2013-06-06 16:44:00,59.0,45.0,-100.00,ESE,118,3.0,9.0,59,0.00,,,0.00,380.000000,,2013-06-06 21:44:00,
2013-06-06 16:53:00,59.0,45.0,-100.00,ESE,118,3.0,9.0,59,0.00,,,0.00,380.000000,,2013-06-06 21:53:00,
2013-06-06 17:03:00,59.0,45.0,-100.00,ESE,118,3.0,9.0,59,0.00,,,0.00,380.000000,,2013-06-06 22:03:00,
2013-06-06 17:33:00,59.0,44.0,-100.00,North,355,2.0,8.0,57,0.00,,,0.00,273.000000,,2013-06-06 22:33:00,
2013-06-06 17:43:00,59.0,44.0,-100.00,North,355,2.0,8.0,57,0.00,,,0.00,273.000000,,2013-06-06 22:43:00,
2013-06-06 17:53:00,59.0,44.0,-100.00,North,355,2.0,8.0,57,0.00,,,0.00,273.000000,,2013-06-06 22:53:00,
2013-06-06 18:02:00,59.0,44.0,-100.00,North,355,2.0,8.0,57,0.00,,,0.00,273.000000,,2013-06-06 23:02:00,
2013-06-06 18:12:00,59.0,44.0,-100.00,North,355,2.0,8.0,57,0.00,,,0.00,273.000000,,2013-06-06 23:12:00,
2013-06-06 18:33:00,59.0,44.0,-100.00,North,356,3.0,5.0,57,0.00,,,0.00,170.000000,,2013-06-06 23:33:00,
2013-06-06 18:43:00,59.0,44.0,-100.00,North,356,3.0,5.0,57,0.00,,,0.00,170.000000,,2013-06-06 23:43:00,
2013-06-06 18:52:00,59.0,44.0,-100.00,North,356,3.0,5.0,57,0.00,,,0.00,170.000000,,2013-06-06 23:52:00,
2013-06-06 19:02:00,59.0,44.0,-100.00,North,356,3.0,5.0,57,0.00,,,0.00,170.000000,,2013-06-07 00:02:00,
2013-06-06 19:12:00,59.0,44.0,-100.00,North,356,3.0,5.0,57,0.00,,,0.00,170.000000,,2013-06-07 00:12:00,
2013-06-06 20:33:00,56.0,43.0,-100.00,SSE,152,2.0,6.0,62,-99.99,,,0.00,69.000000,,2013-06-07 01:33:00,
2013-06-06 20:42:00,56.0,43.0,-100.00,SSE,152,2.0,6.0,62,-99.99,,,0.00,69.000000,,2013-06-07 01:42:00,
2013-06-06 20:52:00,56.0,43.0,-100.00,SSE,152,2.0,6.0,62,-99.99,,,0.00,69.000000,,2013-06-07 01:52:00,
2013-06-06 21:02:00,56.0,43.0,-100.00,SSE,152,2.0,6.0,62,-99.99,,,0.00,69.000000,,2013-06-07 02:02:00,
2013-06-06 21:12:00,56.0,43.0,-100.00,SSE,152,2.0,6.0,62,-99.99,,,0.00,69.000000,,2013-06-07 02:12:00,
2013-06-06 21:32:00,52.0,41.0,-100.00,SSE,147,2.0,6.0,67,0.00,,,0.00,18.000000,,2013-06-07 02:32:00,
2013-06-06 21:42:00,52.0,41.0,-100.00,SSE,147,2.0,6.0,67,0.00,,,0.00,18.000000,,2013-06-07 02:42:00,
2013-06-06 21:52:00,52.0,41.0,-100.00,SSE,147,2.0,6.0,67,0.00,,,0.00,18.000000,,2013-06-07 02:52:00,
2013-06-06 22:02:00,52.0,41.0,-100.00,SSE,147,2.0,6.0,67,0.00,,,0.00,18.000000,,2013-06-07 03:02:00,
2013-06-06 22:12:00,52.0,41.0,-100.00,SSE,147,2.0,6.0,67,0.00,,,0.00,18.000000,,2013-06-07 03:12:00,
2013-06-06 22:33:00,50.0,40.0,-100.00,South,171,3.0,4.0,69,0.00,,,0.00,1.000000,,2013-06-07 03:33:00,
2013-06-06 22:44:00,50.0,40.0,-100.00,South,171,3.0,4.0,69,0.00,,,0.00,1.000000,,2013-06-07 03:44:00,
2013-06-06 22:53:00,50.0,40.0,-100.00,South,171,3.0,4.0,69,0.00,,,0.00,1.000000,,2013-06-07 03:53:00,
2013-06-06 23:03:00,50.0,40.0,-100.00,South,171,3.0,4.0,69,0.00,,,0.00,1.000000,,2013-06-07 04:03:00,
2013-06-06 23:12:00,50.0,40.0,-100.00,South,171,3.0,4.0,69,0.00,,,0.00,1.000000,,2013-06-07 04:12:00,
2013-06-06 23:33:00,47.0,39.0,-100.00,SSW,196,2.0,4.0,75,0.00,,,0.00,1.000000,,2013-06-07 04:33:00,
2013-06-06 23:42:00,47.0,39.0,-100.00,SSW,196,2.0,4.0,75,0.00,,,0.00,1.000000,,2013-06-07 04:42:00,
2013-06-06 23:53:00,47.0,39.0,-100.00,SSW,196,2.0,4.0,75,0.00,,,0.00,1.000000,,2013-06-07 04:53:00,